Temp_Advection
nan nan nan nan nan nan nan nan nan nan nan nan nan nan nan nan nan nan nan nan nan nan nan nan nan nan nan nan nan nan nan nan nan nan nan nan nan nan nan nan nan nan nan nan nan
nan -0 -0 -0 -0 -0 -0 -0 0 0 -0 -0 -0 -0 -0 -0 -0 -1 -0 -0 -0 -0 -0 -0 -0 0 0 -0 -0 -1 -0 -0 -0 -0 -0 0 0 -0 -0 0 0 0 0 0 nan
nan -0 -0 -0 -0 -0 -0 -0 0 0 0 -0 -0 -0 -0 -0 -1 -0 -0 -0 -0 -0 0 0 -0 0 0 0 0 -0 -0 -0 -0 -0 0 0 -0 0 0 -0 -0 -0 -0 0 nan
nan -0 -0 -0 -0 -0 0 -0 -0 0 -0 -0 -0 -0 -0 -0 -0 0 -0 -0 -0 0 0 -0 -0 -0 -0 0 0 -0 -0 -0 -0 0 0 0 0 0 -0 -0 0 0 0 0 nan
nan -0 -0 -0 -0 -0 -0 -0 0 0 -0 -0 -0 -0 0 -0 -1 -0 0 0 0 0 -0 -0 -0 -0 -0 -0 0 -0 -0 -0 -0 0 0 0 0 0 -0 -0 0 0 0 0 nan
nan -0 -0 -0 -0 -0 0 -0 0 0 0 -0 -0 0 0 -0 -1 -0 -0 0 0 0 -0 -0 -0 -0 -0 0 -0 -0 0 -0 -0 0 0 0 0 -0 -0 0 0 0 0 0 nan
nan -0 -0 -0 -0 0 -0 -0 -0 0 0 0 0 0 -1 -2 -0 0 0 0 0 0 0 -0 0 0 -0 0 0 -0 -0 -0 -0 0 0 0 0 -0 -1 0 0 0 0 0 nan
nan -0 -0 -0 -0 0 0 -0 0 0 0 0 0 0 -1 -1 0 -0 0 0 0 0 0 0 0 0 0 0 -0 -0 -0 -0 -0 0 -0 0 0 -0 -0 0 0 0 0 0 nan
nan -0 0 0 -0 -0 0 0 0 0 0 0 0 -0 -1 -1 -0 -0 -0 -0 0 0 0 0 0 0 0 -0 -0 -0 -0 -0 -0 -0 0 0 -0 -0 0 1 0 0 0 0 nan
nan 0 0 0 -0 0 1 0 0 0 0 -0 -0 -0 -1 -0 -0 -0 0 0 0 0 1 0 0 -0 -0 0 -0 -0 -0 0 -0 -0 0 0 0 -0 -0 0 1 1 0 0 nan
nan 0 0 0 0 0 1 0 -0 -0 -1 -1 -0 -0 -0 -0 0 0 0 0 0 1 0 0 0 -0 -0 -0 -0 0 0 0 -0 -0 0 1 0 -1 -0 0 0 -0 0 0 nan
nan -0 0 0 0 1 0 -1 -1 -0 -0 -1 -0 -0 -0 0 0 0 0 0 0 0 0 -0 -0 -1 0 -0 0 0 0 0 -0 0 0 0 0 0 0 -0 -1 0 -0 0 nan
nan -1 0 0 1 1 -1 -2 -0 0 -0 0 0 -1 0 0 0 -0 -0 0 -0 0 0 -0 -0 -0 0 -0 0 0 -0 -0 -0 -0 0 0 -0 -0 -0 -0 1 1 0 1 nan
nan -1 0 1 1 1 -2 -1 -0 -0 -0 -0 0 -1 -0 0 -0 -0 -0 0 0 0 -0 -0 -0 0 0 0 -0 -0 -0 -0 0 -0 0 -0 0 -0 0 0 0 1 1 0 nan
nan -1 0 1 1 -2 -2 0 1 0 0 -0 -0 0 0 0 0 0 0 0 -0 -0 -0 -0 -0 0 -0 -0 -0 -0 0 0 0 0 -0 0 0 -0 0 0 0 0 -0 -0 nan
nan -0 -1 1 -1 -1 -0 1 0 -0 -1 -0 0 0 0 1 1 0 1 1 0 0 0 -0 -0 -0 -0 0 0 0 -0 -1 -0 0 -0 -0 0 -0 -0 0 0 -0 -1 -0 nan
nan -1 -1 0 0 1 0 1 -0 -0 -0 0 0 0 0 0 0 0 0 0 0 0 0 -0 0 -0 -0 -0 -0 -0 -0 0 0 0 -0 0 0 -1 0 0 -0 -1 -1 -0 nan
nan -1 -1 1 1 0 0 0 -0 -0 -0 0 -0 0 0 -0 0 0 0 -0 -0 -0 -0 0 -0 0 0 0 -0 0 -0 -0 -0 -0 -0 -0 -0 -0 0 0 -0 -0 1 0 nan
nan -2 -1 1 1 1 -1 -0 -1 0 -0 -0 -0 0 0 0 0 -0 0 -0 -0 0 -1 -0 -0 0 0 0 -0 0 -0 -0 -0 0 0 -0 -0 -0 0 0 -0 1 1 0 nan
nan -1 -1 1 1 1 0 -0 0 -0 -0 -0 0 0 0 0 0 0 -0 -0 -0 -0 -0 -0 -0 -0 0 0 -0 0 -0 -0 -0 -0 0 -0 -0 -0 -0 0 -0 0 -1 -1 nan
nan -1 0 0 3 1 1 0 0 -0 -0 -1 -0 -0 -0 0 0 0 -0 -0 -0 -0 1 -0 0 -0 -0 0 0 0 0 -0 -0 0 0 -0 -0 -0 0 0 0 -1 -2 -2 nan
nan -1 2 -1 0 -0 0 0 -0 0 0 -0 -0 -0 -0 0 -0 -0 -0 -0 -0 -0 0 0 0 0 -0 -0 -0 -0 0 -0 -0 0 0 0 -1 -0 0 0 -0 -1 -1 -0 nan
nan -1 1 -0 -0 -1 0 -0 0 -0 0 0 -0 -0 -0 -0 -0 0 0 -0 0 -0 -1 -0 0 -0 -0 -0 -0 -0 -0 -0 -0 -0 -0 0 -0 0 -0 -0 -0 -0 -0 -0 nan
nan -0 0 -1 -0 -1 -1 -0 -0 0 -0 -0 0 -0 -0 -0 0 -0 -0 0 0 -0 -0 -0 -0 -0 -0 -0 -0 -0 -0 0 -0 -0 -0 -0 -1 -0 0 0 -0 -1 -0 0 nan
nan -1 0 -0 -0 0 -0 0 -0 0 0 0 -0 0 -0 -0 0 -0 0 0 0 0 1 0 -0 0 -0 0 -0 -0 0 0 -0 -1 0 -0 0 -0 1 -0 -2 -1 0 0 nan
nan -1 -1 -0 -0 0 0 -0 -0 -0 0 -0 0 0 0 -0 -0 -0 -0 -0 -0 0 0 0 -0 0 0 0 0 0 0 -0 -1 0 -0 0 -0 -0 -1 0 -0 -0 0 0 nan
nan nan nan nan nan nan nan nan nan nan nan nan nan nan nan nan nan nan nan nan nan nan nan nan nan nan nan nan nan nan nan nan nan nan nan nan nan nan nan nan nan nan nan nan nan
Wind_Speed
18 19 19 17 16 14 11 11 11 11 11 9 10 10 10 10 8 12 11 6 4 5 6 7 7 4 4 4 3 3 4 1 2 1 2 3 1 1 3 4 3 2 3 5 15
20 19 20 20 18 17 16 14 13 12 10 10 10 10 9 11 9 14 8 9 7 6 7 8 5 2 3 2 2 4 3 6 3 2 2 1 2 2 2 1 2 5 7 10 16
23 21 21 21 20 18 17 17 14 13 11 10 10 10 8 9 10 9 11 13 9 7 8 5 1 3 1 1 2 3 4 4 3 4 3 2 3 3 3 4 7 9 11 12 12
25 23 22 21 22 21 20 18 17 15 12 10 10 9 8 7 5 3 10 15 11 9 10 5 2 4 2 2 3 2 5 4 2 4 4 3 3 4 7 5 4 7 10 11 12
27 25 24 22 23 22 21 18 18 15 12 11 10 8 8 8 12 4 5 17 14 11 12 7 4 4 4 3 3 3 3 5 5 6 7 6 8 6 9 8 8 9 10 9 10
28 27 26 25 24 23 22 20 17 15 12 12 10 9 9 6 9 8 3 16 15 13 12 9 4 3 4 3 3 2 4 7 8 9 8 5 5 1 4 11 12 10 9 8 8
30 28 25 24 23 23 23 21 19 16 13 12 10 10 13 20 7 9 5 10 14 14 11 11 8 4 3 2 1 1 4 7 6 6 8 7 6 8 12 10 16 13 10 8 7
33 29 25 23 22 23 22 21 20 16 14 11 9 10 11 9 20 16 8 8 12 12 11 9 8 5 3 3 4 3 4 3 3 3 1 6 8 8 8 16 17 15 12 9 7
34 32 28 24 23 22 22 19 18 15 12 9 9 9 10 11 23 20 14 9 10 13 10 8 7 3 3 4 4 5 2 2 7 5 3 3 6 4 5 19 17 17 14 10 7
36 36 32 27 24 21 21 16 14 13 11 8 8 5 16 10 14 22 18 12 11 13 9 7 4 3 2 3 3 3 2 3 5 3 3 4 10 9 7 16 19 18 16 12 8
39 38 35 31 26 23 22 16 8 6 19 14 11 11 2 8 10 16 20 15 13 13 6 4 3 6 9 7 4 3 3 4 5 6 3 7 8 11 16 15 17 21 21 17 12
34 38 38 34 29 26 24 23 22 6 7 32 15 23 9 10 6 14 17 16 9 6 6 4 6 11 5 3 5 5 4 5 6 4 6 7 12 10 8 16 29 30 28 24 19
28 39 42 38 31 29 34 36 17 10 2 6 37 27 20 17 8 12 18 18 5 6 7 7 5 8 7 5 4 4 5 4 8 4 3 5 8 6 5 11 20 30 33 29 25
33 39 46 43 33 35 38 32 14 10 2 6 7 16 27 12 7 17 20 20 4 12 8 5 7 5 4 5 7 4 7 4 3 2 3 2 5 5 4 7 6 21 33 32 27
23 37 47 51 31 42 37 32 14 10 3 7 7 5 15 19 8 18 18 18 8 6 7 7 6 6 7 10 7 7 5 5 2 2 2 3 0 8 3 7 8 14 31 33 29
29 16 51 51 36 38 26 30 11 4 10 5 9 7 7 9 10 8 12 14 10 5 1 9 4 7 8 2 8 4 5 6 4 3 2 6 6 6 4 6 3 5 27 34 31
33 21 53 54 50 33 41 33 5 6 2 7 6 6 8 7 6 7 8 6 6 6 5 1 3 2 4 4 3 4 6 2 2 0 6 3 3 10 6 6 5 11 26 35 33
36 29 40 57 42 42 52 11 7 11 8 3 5 8 8 6 5 6 8 10 5 5 4 7 4 9 5 7 6 6 7 5 5 4 3 3 5 6 4 5 12 12 24 31 36
29 35 50 49 46 58 42 17 14 6 12 9 6 5 4 6 7 5 8 14 13 9 7 6 6 1 2 3 9 4 4 6 3 2 2 4 7 9 2 2 3 7 18 30 37
26 14 50 49 57 55 24 21 12 5 10 6 7 6 8 10 6 9 9 7 6 10 4 6 2 1 2 4 3 6 6 2 2 3 4 4 5 7 3 3 2 6 19 27 35
29 12 35 53 59 34 24 21 7 11 16 8 7 6 6 8 9 7 9 1 12 9 9 5 3 2 3 6 9 3 3 3 4 4 5 2 5 4 4 4 7 10 21 27 35
17 5 60 62 11 19 20 14 8 7 9 5 5 5 8 10 6 7 11 9 16 12 10 8 5 5 8 2 4 5 6 7 4 5 3 3 6 2 3 4 7 10 12 20 27
7 11 54 67 13 19 9 8 7 7 7 8 5 4 4 8 5 6 7 10 9 10 11 8 4 2 1 2 2 4 5 4 3 3 6 5 5 2 1 5 5 9 9 14 21
3 4 24 37 12 20 19 24 12 8 6 6 6 6 6 5 0 9 8 2 10 11 17 17 5 11 10 3 5 4 6 10 7 3 8 6 6 7 4 4 6 9 10 11 15
7 6 11 13 17 21 21 21 19 8 6 11 3 7 8 5 4 5 4 4 2 6 8 6 8 7 8 4 5 6 5 8 10 18 7 15 10 16 8 9 18 14 11 15 18
7 9 22 14 33 14 24 24 29 7 9 7 10 8 6 8 8 8 8 5 6 3 6 4 4 7 6 7 8 5 7 9 12 6 8 12 10 7 14 13 12 16 15 16 18
18 30 31 23 23 14 26 24 28 8 2 13 12 6 6 7 7 6 14 16 9 9 7 7 6 4 10 5 4 5 7 7 5 6 12 9 17 4 4 7 16 17 14 16 15
Wind_Direction
249 248 247 247 243 249 266 274 272 272 277 280 284 279 267 266 259 264 250 212 200 183 169 162 167 157 115 105 89 92 64 57 282 208 250 351 197 69 93 149 128 166 209 211 178
256 250 246 246 245 247 256 264 265 268 273 277 281 272 267 280 271 254 213 208 188 186 175 149 148 158 130 74 69 81 104 212 216 237 234 40 67 321 305 137 115 119 143 160 175
256 256 251 246 248 248 252 254 260 262 263 268 274 266 266 288 294 248 218 200 199 188 187 185 171 160 103 113 172 146 180 201 234 222 225 235 271 234 216 255 208 197 173 171 190
254 253 252 249 245 245 246 250 253 255 255 259 263 264 258 274 237 158 204 202 198 195 200 212 154 148 131 182 195 159 228 209 270 216 201 232 230 252 228 243 233 202 196 204 215
252 252 252 248 246 244 242 246 249 247 250 252 255 251 255 256 243 295 207 197 198 200 206 206 191 178 183 189 150 176 247 217 235 249 237 260 252 245 248 242 215 200 205 216 225
248 251 253 246 243 243 243 244 242 241 242 245 249 242 243 246 248 252 256 195 200 201 207 202 188 153 146 178 166 201 260 271 274 255 229 214 257 243 258 221 197 203 213 222 237
243 248 251 240 238 238 241 243 236 235 235 235 240 245 241 237 237 218 197 208 209 207 209 209 203 180 177 179 152 320 324 321 255 250 214 200 299 240 257 227 202 202 213 224 251
241 242 241 236 238 237 235 237 232 229 226 231 237 246 253 257 227 215 202 199 212 208 213 219 204 216 202 143 38 41 49 353 279 159 223 149 267 269 261 198 199 204 212 231 266
239 239 238 238 239 238 233 232 227 220 220 224 235 235 262 232 233 217 218 237 220 202 206 203 199 186 133 87 15 11 228 249 313 186 131 168 257 272 205 194 205 208 212 226 249
239 234 235 236 239 237 231 224 218 209 203 205 221 246 251 239 230 218 221 216 201 190 181 195 178 93 56 95 230 200 218 246 253 255 200 211 258 266 253 211 221 213 208 216 227
229 236 230 232 234 231 218 194 172 209 201 194 210 202 261 242 207 212 211 197 201 179 169 184 128 198 205 193 183 198 189 237 264 269 232 241 257 270 259 217 221 219 211 211 212
228 235 225 228 228 225 211 194 197 191 214 218 221 225 233 173 198 215 205 191 176 183 126 52 205 221 190 170 196 212 223 257 279 261 187 272 273 254 222 219 220 216 210 208 202
228 230 221 222 221 213 210 205 208 203 240 225 225 232 217 220 239 212 199 191 157 163 179 175 223 172 175 194 196 239 209 232 240 333 274 337 287 259 280 235 231 223 218 207 203
242 225 222 214 203 209 211 194 184 177 26 265 207 239 223 197 240 220 205 191 185 189 166 217 241 160 162 229 161 233 211 199 234 67 251 68 285 288 268 264 220 203 211 205 199
258 231 219 208 193 200 208 176 152 140 219 235 182 203 202 185 164 204 206 193 166 174 132 228 190 205 201 218 167 226 163 191 220 176 348 238 89 273 341 274 233 209 208 202 200
248 235 212 201 194 207 186 162 154 82 232 215 154 163 134 181 177 147 178 199 199 152 167 205 209 157 206 183 182 126 83 42 48 79 310 238 169 278 230 229 282 194 207 201 198
246 261 212 200 192 187 160 169 139 206 213 190 177 159 154 163 163 149 161 168 161 143 178 226 214 207 157 96 54 91 95 305 323 298 228 150 125 248 266 240 219 209 204 204 199
241 266 206 194 186 162 161 164 188 193 206 125 129 127 170 142 212 160 153 187 238 122 142 174 244 174 194 174 177 187 156 168 228 202 263 103 236 251 204 284 275 246 219 203 199
249 259 199 180 171 163 168 192 201 160 176 143 77 117 190 192 149 136 187 202 194 173 167 159 241 172 188 142 150 195 179 191 96 352 55 241 289 300 317 331 71 170 191 200 201
242 309 192 175 162 168 177 200 196 203 144 139 153 159 172 177 146 162 176 186 187 184 188 201 184 247 143 110 46 160 164 84 16 215 241 272 277 242 297 269 179 182 200 205 205
245 294 184 164 158 181 187 197 161 198 162 141 162 144 168 171 166 183 188 250 189 187 170 141 131 290 102 202 182 148 175 92 131 156 191 253 255 211 257 238 222 227 218 214 212
246 250 165 158 160 200 190 179 164 174 181 140 124 119 158 162 155 171 197 195 197 158 166 190 159 170 202 195 177 164 189 154 147 220 223 165 273 200 258 286 231 248 241 233 230
270 192 160 158 178 191 175 208 179 156 161 153 143 152 161 156 160 182 185 216 158 158 167 169 199 148 214 65 27 191 202 170 120 92 199 165 257 136 231 304 257 245 241 232 233
269 235 158 173 178 178 179 191 191 177 154 143 137 127 119 146 226 184 182 164 171 191 197 158 166 201 215 201 135 188 202 194 168 151 222 228 278 275 253 245 246 253 258 250 240
212 258 180 174 202 179 186 186 188 166 184 148 106 163 152 127 130 139 138 129 122 159 156 150 204 199 214 174 169 195 209 190 197 219 183 251 222 256 247 235 257 258 258 251 245
217 221 186 176 171 189 184 194 185 171 155 176 141 175 153 145 172 180 137 173 175 161 158 165 223 163 214 211 208 226 226 196 217 241 248 252 269 245 257 248 250 253 256 245 245
244 246 183 162 174 186 191 184 193 142 105 160 145 124 126 156 150 174 173 176 160 152 174 160 140 128 231 194 172 269 206 195 193 203 210 223 245 166 255 227 243 251 247 256 261
Height
1529 1529 1531 1531 1531 1531 1531 1531 1531 1531 1531 1530 1530 1529 1528 1527 1526 1526 1525 1526 1526 1526 1526 1526 1527 1528 1528 1529 1529 1530 1542 1548 1539 1538 1533 1532 1531 1531 1532 1532 1532 1532 1532 1533 1534
1526 1526 1527 1528 1528 1528 1529 1529 1529 1529 1529 1529 1528 1528 1527 1526 1524 1523 1525 1525 1526 1526 1527 1527 1527 1527 1528 1529 1529 1530 1544 1540 1534 1533 1532 1531 1531 1532 1532 1532 1532 1531 1531 1531 1533
1520 1521 1523 1524 1524 1525 1525 1527 1527 1527 1528 1527 1527 1527 1526 1526 1524 1520 1522 1523 1525 1526 1527 1527 1527 1528 1528 1528 1530 1532 1539 1533 1532 1532 1532 1531 1531 1531 1531 1532 1530 1530 1531 1532 1533
1516 1518 1518 1519 1520 1522 1524 1524 1525 1525 1526 1525 1525 1527 1525 1526 1527 1518 1519 1522 1524 1525 1527 1527 1527 1528 1529 1530 1530 1533 1530 1531 1530 1530 1531 1531 1530 1529 1528 1528 1528 1528 1529 1530 1531
1511 1513 1514 1515 1517 1519 1520 1520 1522 1523 1523 1523 1524 1524 1524 1524 1519 1518 1517 1520 1522 1524 1526 1527 1527 1528 1529 1529 1529 1531 1529 1529 1529 1528 1529 1529 1528 1528 1525 1525 1525 1526 1527 1528 1529
1506 1507 1510 1513 1513 1514 1516 1517 1518 1520 1521 1521 1522 1522 1522 1522 1518 1517 1517 1519 1520 1523 1525 1526 1526 1526 1528 1528 1529 1528 1528 1528 1527 1526 1526 1526 1526 1526 1522 1522 1523 1524 1525 1526 1526
1501 1504 1505 1507 1509 1511 1513 1514 1515 1517 1519 1520 1520 1520 1518 1513 1515 1516 1516 1518 1520 1521 1523 1525 1525 1525 1527 1527 1527 1527 1529 1526 1523 1522 1523 1523 1526 1522 1519 1520 1521 1522 1523 1524 1523
1495 1498 1501 1503 1505 1507 1509 1511 1512 1514 1517 1517 1518 1518 1511 1511 1512 1513 1514 1516 1518 1520 1522 1524 1524 1525 1525 1525 1526 1529 1532 1537 1521 1522 1522 1522 1530 1515 1516 1517 1518 1520 1521 1522 1521
1488 1492 1495 1498 1500 1503 1505 1507 1509 1512 1514 1515 1517 1517 1510 1506 1507 1510 1512 1515 1516 1518 1520 1522 1523 1523 1524 1529 1536 1537 1541 1536 1528 1521 1522 1523 1524 1513 1513 1515 1516 1517 1519 1520 1520
1480 1484 1489 1493 1496 1499 1501 1504 1507 1510 1512 1514 1515 1518 1506 1502 1503 1506 1510 1513 1515 1516 1520 1521 1521 1524 1528 1533 1542 1537 1536 1532 1534 1522 1521 1524 1521 1513 1514 1514 1513 1514 1516 1517 1518
1472 1477 1482 1488 1491 1495 1498 1502 1508 1510 1506 1501 1501 1500 1499 1500 1501 1503 1507 1510 1513 1514 1519 1518 1525 1529 1524 1525 1525 1530 1531 1535 1529 1521 1522 1521 1520 1513 1509 1510 1510 1511 1512 1515 1516
1463 1466 1474 1481 1486 1489 1492 1494 1495 1497 1498 1497 1498 1498 1498 1499 1500 1501 1505 1509 1510 1514 1515 1523 1526 1514 1518 1522 1525 1528 1529 1529 1524 1519 1523 1517 1514 1506 1503 1501 1499 1503 1506 1509 1513
1453 1457 1465 1473 1480 1483 1483 1487 1494 1495 1495 1491 1490 1491 1494 1498 1497 1497 1501 1504 1506 1512 1515 1521 1514 1512 1518 1520 1525 1524 1527 1526 1528 1521 1518 1518 1516 1504 1497 1494 1494 1496 1501 1504 1508
1446 1449 1455 1465 1472 1473 1475 1487 1492 1494 1499 1490 1485 1482 1489 1493 1493 1495 1496 1501 1505 1511 1514 1515 1509 1510 1516 1519 1521 1528 1516 1518 1521 1526 1534 1521 1534 1506 1496 1494 1490 1491 1495 1500 1505
1438 1439 1443 1447 1452 1460 1469 1484 1489 1493 1513 1477 1476 1476 1476 1484 1485 1487 1493 1497 1502 1504 1509 1512 1509 1511 1515 1514 1514 1518 1513 1517 1517 1526 1528 1525 1533 1503 1496 1492 1488 1487 1490 1495 1501
1430 1429 1432 1438 1446 1455 1468 1482 1490 1506 1498 1470 1468 1471 1477 1479 1481 1485 1490 1494 1496 1501 1502 1504 1502 1504 1506 1505 1507 1509 1516 1524 1530 1535 1543 1521 1526 1510 1495 1488 1483 1484 1487 1492 1498
1422 1422 1426 1426 1432 1448 1463 1479 1491 1496 1463 1466 1466 1468 1472 1477 1481 1482 1488 1493 1499 1509 1510 1503 1502 1500 1500 1507 1508 1512 1522 1539 1542 1545 1539 1522 1526 1500 1482 1480 1479 1479 1482 1488 1495
1414 1414 1413 1412 1429 1442 1459 1473 1479 1454 1459 1451 1457 1465 1471 1472 1477 1479 1485 1490 1491 1494 1509 1513 1516 1501 1497 1500 1508 1515 1518 1537 1534 1538 1529 1522 1521 1491 1477 1475 1473 1474 1479 1486 1491
1411 1405 1407 1406 1415 1434 1450 1459 1435 1441 1442 1449 1457 1467 1470 1468 1471 1476 1483 1482 1483 1487 1499 1509 1507 1494 1494 1495 1499 1514 1520 1513 1525 1528 1533 1519 1501 1479 1474 1474 1473 1474 1478 1481 1487
1401 1397 1390 1395 1406 1426 1435 1427 1428 1427 1431 1439 1452 1457 1468 1467 1469 1474 1481 1473 1478 1480 1482 1491 1502 1494 1494 1495 1498 1502 1503 1521 1529 1529 1533 1517 1508 1491 1474 1473 1475 1476 1477 1480 1485
1399 1395 1381 1387 1399 1422 1410 1412 1418 1421 1424 1432 1444 1453 1456 1461 1464 1470 1471 1468 1468 1475 1479 1486 1493 1500 1495 1498 1499 1504 1507 1511 1517 1523 1525 1522 1499 1475 1475 1475 1474 1474 1475 1477 1479
1395 1391 1369 1380 1405 1408 1404 1402 1408 1417 1421 1424 1430 1437 1446 1454 1461 1464 1464 1461 1461 1465 1480 1481 1492 1505 1496 1487 1488 1493 1498 1502 1516 1515 1519 1517 1500 1472 1472 1473 1473 1473 1473 1474 1477
1383 1371 1365 1374 1393 1396 1406 1407 1406 1413 1414 1419 1425 1427 1436 1447 1457 1456 1458 1454 1457 1462 1470 1476 1490 1502 1493 1494 1492 1493 1492 1492 1499 1503 1514 1510 1496 1472 1472 1471 1470 1471 1472 1472 1474
1380 1366 1364 1373 1382 1386 1396 1402 1404 1404 1409 1412 1419 1423 1433 1441 1441 1451 1455 1454 1455 1459 1462 1465 1482 1479 1483 1479 1480 1489 1486 1485 1491 1508 1493 1501 1484 1472 1471 1472 1471 1469 1469 1469 1470
1373 1365 1349 1359 1376 1378 1392 1397 1399 1401 1402 1406 1416 1419 1425 1440 1444 1447 1450 1454 1455 1456 1460 1465 1476 1475 1470 1471 1477 1475 1477 1483 1487 1478 1492 1474 1485 1466 1468 1469 1467 1467 1467 1466 1467
1364 1358 1355 1354 1374 1381 1380 1383 1383 1396 1398 1405 1410 1418 1420 1429 1432 1441 1443 1447 1449 1456 1459 1462 1469 1469 1472 1469 1473 1474 1474 1478 1478 1477 1481 1476 1480 1463 1461 1463 1463 1462 1463 1463 1463
1351 1350 1351 1346 1364 1371 1359 1369 1377 1388 1396 1397 1405 1415 1421 1421 1423 1427 1430 1434 1438 1447 1457 1462 1466 1473 1474 1469 1472 1479 1472 1472 1471 1469 1467 1479 1458 1458 1459 1459 1459 1458 1459 1458 1459